Regional Weather Roundup
Issued by NWS

Home | Current Version | Previous Version | Text Only | Print | Product List | Glossary Off
Versions: 1 2 3 4 5 6 7 8 9 10 11 12 13 14 15 16 17 18 19 20 21 22 23 24 25 26 27

000
ASUS45 KSLC 230210
RWRUT

UTAH REGIONAL WEATHER ROUNDUP
NATIONAL WEATHER SERVICE SALT LAKE CITY UT
800 PM MDT TUE AUG 22 2017

UTZ001>011-023>025-230300-

NORTHERN UTAH

CITY           SKY/WX    TMP DP  RH WIND       PRES   REMARKS
BRIGHAM CITY   CLOUDY    85  36  17 SE9       30.13R
HILL AFB       MOCLDY    78  48  34 S22G29    30.19R
LOGAN          MOCLDY    85  43  22 S20G25    30.12R
OGDEN          CLOUDY    80  46  30 S22G30    30.15R
SALT LAKE CITY TSTM      79  49  34 SW12      30.16F
TOOELE VALLEY  LGT RAIN  63  59  88 S13       30.19F
WENDOVER       MOCLDY    83  45  26 W9        30.11F
HEBER CITY     CLOUDY    64  48  55 CALM      30.25F
WEST JORDAN    CLOUDY    72  56  58 W20G26    30.18F

$$

UTZ011>015-024>027-230300-

CENTRAL/NORTHEAST UTAH

CITY           SKY/WX    TMP DP  RH WIND       PRES   REMARKS
PROVO AIRPORT  CLOUDY    75  55  50 N20       30.18F
MOAB/CANYONLAN PTCLDY    84  45  25 E14       30.10S
DELTA          CLOUDY    81  43  26 NE5       30.15S
PRICE          MOCLDY    76  44  32 E9        30.22F
RICHFIELD      CLEAR     70  52  52 CALM      30.22F
ROOSEVELT      CLEAR     81  37  21 NW5       30.20S
VERNAL         CLOUDY    80  41  24 W6        30.19S

$$

UTZ013>016-019>022-027-230300-

SOUTHERN UTAH

CITY           SKY/WX    TMP DP  RH WIND       PRES   REMARKS
BRYCE CANYON   CLEAR     66  47  50 NE7       30.38F
CEDAR CITY     PTCLDY    77  43  29 SW9       30.19F
MILFORD        MOCLDY    78  48  34 NW17      30.16R
ST GEORGE      CLOUDY    93  45  19 W9        29.99F
HANKSVILLE     CLEAR     84  37  18 CALM      30.12S
KANAB          CLEAR     79  43  27 SW5       30.19S
BLANDING       PTCLDY    78  42  27 SW6       30.29S

$$

REGIONAL REPORTS     COLORADO/ARIZONA

CITY           SKY/WX    TMP DP  RH WIND       PRES   REMARKS
CRAIG, CO      CLOUDY    70  41  34 W7        30.26S
GRAND JUNCTION MOCLDY    75  49  39 SE9G21    30.21R
RIFLE, CO      CLOUDY    74  45  35 SW10G23   30.27R
MONTROSE, CO   CLOUDY    73  46  38 SE5       30.30R
CORTEZ, CO     CLEAR     76  50  40 SW3       30.23S
COLORADO CITY    N/A     82  46  28 W6        30.18F
PAGE, AZ       CLEAR     87  44  22 NE3       30.09F
GRAND CANYON   PTCLDY    71  50  47 W3        30.31S
KINGMAN, AZ    CLEAR     90  46  21 CALM      30.05S
FLAGSTAFF, AZ  CLEAR     67  47  48 CALM      30.34F

$$

REGIONAL REPORTS    NEVADA/IDAHO/WYOMING

CITY           SKY/WX    TMP DP  RH WIND       PRES   REMARKS
LAS VEGAS, NV  PTCLDY    98  44  15 E6        29.92F HX  94
ELY, NY        PTCLDY    69  45  41 S3        30.27F
ELKO, NV       CLOUDY    66  53  63 SW14      30.21R
POCATELLO, ID  CLEAR     83  37  19 SW5       30.09S
BURLEY, ID     MOCLDY    80  49  33 W7        30.06S
FORT BRIDGER,  MOCLDY    72  37  27 W16G23    30.36R
EVANSTON, WY   CLOUDY    67  41  38 SW15      30.35S
ROCK SPRINGS,  CLOUDY    77  28  16 W12       30.27R
KEMMERER, WY     N/A    N/A N/A N/A W8        30.34R

$$




USA.gov is the U.S. government's official web portal to all federal, state and local government web resources and services.